RH
73 73 75 79 80 82 87 89 89 94 90 83 74 70 69 70 74 70 69 68 65 64 66 71 65 64 79 91 85 46 43 50 66 77 77 78 83 82 91 86 90 90 74 68 82 81 81
67 69 71 73 76 78 79 83 89 94 91 89 80 72 70 72 71 70 69 66 66 66 68 71 69 66 90 92 51 47 49 57 70 78 78 80 78 81 81 89 85 76 78 68 83 85 85
64 63 65 68 71 73 75 79 84 88 93 91 82 76 72 70 71 72 68 62 66 68 70 69 68 71 90 82 52 60 61 74 72 80 81 75 82 93 82 91 84 75 81 74 81 87 84
62 65 63 62 66 69 74 79 83 88 95 91 89 85 75 70 73 73 70 68 63 64 67 67 69 67 92 57 60 60 62 71 78 81 84 78 88 92 94 91 95 80 86 95 92 82 85
63 60 61 65 64 66 69 74 79 78 82 87 92 85 82 75 74 71 68 68 66 65 66 68 79 87 81 56 65 69 67 71 74 80 84 68 80 87 93 93 97 82 98 98 94 80 83
60 59 65 69 68 66 66 70 76 80 81 84 94 90 85 79 73 72 68 72 73 72 74 68 70 92 80 78 81 70 67 67 73 78 88 92 92 90 89 95 93 95 98 99 93 94 86
58 61 64 68 67 68 66 69 73 77 83 86 93 91 89 77 72 72 78 85 76 86 78 76 72 74 69 80 81 78 71 76 72 83 91 84 94 98 88 92 89 81 73 98 91 83 86
58 58 68 69 66 70 71 68 71 78 83 87 93 92 87 79 72 70 87 88 72 66 68 64 66 69 76 76 71 75 72 78 86 93 86 89 91 78 76 80 92 78 85 95 91 82 83
60 60 63 65 68 71 68 70 70 73 81 86 93 92 89 83 70 84 88 82 68 65 86 72 66 70 79 80 72 77 80 84 90 84 88 87 94 72 76 83 92 72 75 86 82 85 84
62 59 60 60 58 64 64 66 71 71 79 83 89 92 89 81 84 85 88 73 68 65 92 73 78 73 81 83 79 72 76 86 86 80 81 94 84 83 87 86 87 91 69 70 82 90 99
58 63 61 63 62 62 64 67 69 71 76 80 84 91 85 81 87 83 68 70 73 61 91 58 76 64 74 81 71 82 83 91 88 90 89 96 89 91 98 91 71 78 69 78 84 96 97
54 56 57 58 60 64 68 68 71 73 76 78 89 91 88 87 89 78 68 72 74 88 88 85 74 80 84 81 82 72 86 88 75 83 87 89 82 83 84 76 70 63 78 88 86 92 98
55 53 56 56 60 63 67 69 74 74 76 80 88 90 89 77 85 74 74 79 91 95 67 84 84 77 80 79 76 81 78 88 90 98 99 88 84 78 76 77 71 75 82 99 98 96 95
54 53 55 58 60 60 65 68 69 74 77 79 80 91 86 72 74 75 84 85 95 70 87 62 70 74 80 80 72 76 84 83 84 85 94 98 95 88 77 88 91 83 78 89 90 88 72
54 54 55 55 57 59 62 65 69 77 82 80 92 98 96 89 74 82 82 96 81 81 67 71 71 84 87 81 84 82 85 78 78 87 84 94 98 78 80 77 73 92 88 58 68 66 81
53 56 56 54 55 57 61 64 65 79 86 91 95 97 96 83 78 83 94 86 86 69 61 65 83 74 85 88 86 86 80 82 74 82 82 83 94 87 81 74 71 63 53 73 84 80 68
55 57 58 57 59 62 60 63 65 75 81 92 98 99 94 82 83 95 97 91 74 66 60 65 78 80 80 87 80 82 81 79 74 80 71 79 82 84 77 87 90 71 71 72 72 78 77
54 57 64 68 66 65 64 64 67 71 70 94 99 100 96 90 99 98 97 77 68 70 70 66 68 70 80 80 80 79 82 78 70 70 81 80 87 99 91 79 79 84 77 69 78 76 87
55 58 66 67 67 68 68 68 67 72 71 98 99 98 97 99 99 98 80 75 73 75 72 68 63 65 62 71 74 79 78 76 71 71 78 72 88 94 82 72 72 84 81 69 73 80 86
57 60 66 69 69 71 70 70 72 72 77 98 98 100 100 99 93 87 85 80 82 74 70 66 60 59 63 71 74 73 86 81 75 72 70 66 83 76 89 73 81 88 84 77 76 91 82
59 65 68 68 65 68 73 72 74 75 82 98 98 99 93 100 98 96 82 75 63 84 66 60 67 60 73 89 80 80 77 76 75 72 80 72 88 87 80 77 82 84 82 85 85 79 79
63 66 68 65 69 68 73 73 74 82 87 99 98 98 96 94 79 95 91 85 72 79 68 71 70 61 59 78 74 84 74 72 79 78 76 83 97 84 86 80 80 80 78 81 84 83 74
67 67 66 68 69 68 73 73 83 79 91 98 100 98 95 90 85 89 90 79 69 71 73 62 62 74 68 68 68 71 71 69 73 79 82 83 90 89 91 83 73 79 72 71 80 78 76
68 67 68 67 68 71 72 79 80 85 90 98 99 97 96 93 87 82 80 80 71 72 80 83 68 70 74 62 62 64 70 69 75 83 78 85 86 92 96 84 93 64 58 63 69 71 71
68 69 67 69 70 72 79 78 83 90 90 98 97 92 85 97 88 83 81 80 78 88 89 85 85 83 73 76 93 88 89 79 68 76 79 79 91 97 96 97 76 73 59 55 62 76 84
68 70 69 71 72 73 78 82 88 84 92 97 95 85 78 85 92 82 86 83 87 92 92 92 86 82 73 78 84 95 97 88 92 77 72 86 82 88 95 96 90 62 62 61 61 74 85
72 70 70 70 72 71 71 80 90 91 87 93 88 83 76 89 94 92 89 81 82 86 96 93 91 83 79 91 89 86 91 81 95 93 91 88 92 96 95 97 83 62 62 54 70 59 83
72 70 71 71 71 73 75 82 90 91 88 88 86 76 75 90 93 86 82 79 87 89 91 88 82 80 90 84 84 91 88 87 87 84 87 85 76 83 89 96 87 65 72 60 57 83 77
71 71 73 72 73 76 83 82 91 91 82 73 78 67 67 88 90 82 83 77 80 80 92 92 83 90 90 95 92 93 84 85 86 90 86 86 78 87 84 80 69 80 76 79 72 72 74
Wind_Speed
24 24 23 24 24 26 25 26 26 19 16 16 15 13 14 12 14 12 10 11 11 11 16 8 9 9 3 1 9 5 7 4 1 4 3 6 5 2 9 10 7 14 9 10 5 9 3
25 25 25 25 25 25 25 26 26 17 18 16 16 13 12 11 13 13 10 10 13 9 13 11 9 4 2 7 5 5 6 4 1 1 3 7 5 12 8 12 14 11 4 12 8 13 6
26 26 26 27 26 27 25 25 28 32 17 16 17 13 11 11 13 13 12 11 10 9 12 11 9 2 2 12 2 4 5 2 2 2 3 3 2 6 4 2 5 6 10 3 14 8 7
25 27 27 26 26 26 25 23 23 28 15 17 14 14 12 11 12 11 12 13 8 9 10 11 8 1 6 4 3 2 5 2 2 1 3 4 4 11 4 2 3 9 4 5 12 12 5
25 25 25 28 27 27 27 25 23 21 23 32 16 13 12 9 12 11 12 13 9 8 10 7 1 2 6 1 3 2 0 3 4 3 4 7 6 5 7 5 5 5 6 3 1 1 6
25 25 26 25 26 27 28 28 26 24 23 26 14 11 8 11 10 11 11 15 7 3 4 1 1 3 4 4 2 4 2 4 3 7 2 4 2 4 3 3 5 6 8 5 11 3 6
26 26 26 25 24 25 28 29 29 28 23 27 13 11 9 9 7 11 5 4 3 2 2 7 4 4 4 1 1 0 2 1 4 2 1 2 1 3 1 2 4 3 10 3 10 10 6
26 27 26 26 27 27 26 29 29 29 25 25 13 11 9 6 7 9 2 4 3 3 5 7 5 5 1 2 1 4 3 3 1 1 1 2 2 3 5 6 5 9 16 11 8 7 2
27 27 27 26 27 27 27 27 29 29 30 24 11 9 6 6 6 4 3 4 2 4 0 4 4 3 3 3 3 4 1 3 4 2 3 2 3 3 5 7 5 4 9 7 9 5 3
27 28 28 30 29 27 28 28 26 27 29 26 14 10 9 5 3 3 3 3 3 4 5 4 2 3 3 3 1 3 6 4 1 4 3 4 3 3 6 6 4 3 5 14 13 7 3
27 28 29 30 30 30 30 29 28 28 28 32 26 14 12 11 3 4 3 4 4 5 4 2 2 2 2 1 3 6 4 5 3 4 3 2 2 5 2 8 8 5 10 11 11 8 2
27 25 26 27 28 30 30 30 29 29 28 28 31 16 14 4 3 3 5 4 4 8 7 1 3 2 0 2 2 3 4 4 5 5 5 4 1 3 3 3 1 11 15 10 8 3 1
27 26 28 28 29 28 28 29 30 29 31 24 32 17 12 5 4 7 5 0 7 4 3 3 4 3 2 1 2 1 3 2 2 3 6 5 2 2 3 3 15 8 3 3 4 2 2
25 26 26 27 29 29 28 30 31 31 33 31 33 16 10 6 4 8 3 4 4 4 6 4 4 3 3 2 1 2 1 2 4 4 4 3 3 7 9 4 8 5 1 3 5 2 1
26 26 27 28 28 30 30 31 31 32 36 42 9 4 2 3 6 3 3 4 8 7 6 7 4 3 1 1 1 2 1 1 1 1 5 5 5 3 2 2 2 2 3 1 7 3 4
27 28 27 28 29 29 30 32 31 32 39 10 9 5 4 7 6 3 3 4 4 4 4 6 5 4 4 3 1 2 0 1 2 0 2 3 5 3 4 3 5 3 5 3 4 4 2
28 28 29 29 27 27 29 31 31 27 27 20 2 3 5 7 3 2 4 6 4 5 3 7 6 4 4 5 4 1 3 2 1 2 3 3 4 5 2 5 2 5 3 7 5 3 4
29 30 30 30 29 28 29 29 28 25 22 12 3 3 6 8 5 3 4 6 3 4 2 2 5 4 6 5 4 3 3 1 4 1 3 2 5 4 0 3 0 2 3 4 5 3 2
30 31 31 29 28 29 29 27 27 23 23 5 3 2 3 0 4 4 2 2 3 5 5 5 4 4 5 6 4 2 3 3 3 4 2 2 3 4 8 6 4 3 2 4 5 3 2
30 31 30 29 28 28 28 26 24 26 28 13 4 4 2 3 3 5 5 5 6 4 4 3 3 3 5 4 1 6 3 2 2 3 6 5 3 5 7 4 2 1 2 4 5 4 3
30 31 30 29 29 28 28 26 22 25 24 6 5 4 2 6 8 3 4 5 12 6 2 5 1 3 6 4 2 3 4 3 3 2 3 4 4 3 3 3 3 2 3 4 5 4 5
31 31 29 30 28 29 27 22 25 26 34 6 5 4 2 2 9 7 3 6 11 4 6 3 6 4 4 6 6 6 6 3 2 3 3 3 2 2 2 4 3 1 3 3 3 2 6
31 31 30 30 29 28 26 22 20 28 16 3 2 2 4 3 6 10 6 4 10 8 4 6 6 4 5 4 4 5 4 3 5 6 3 2 4 3 2 4 4 4 5 6 5 4 6
31 31 30 29 27 27 26 21 27 25 16 2 2 2 3 3 5 10 10 5 8 5 7 3 5 6 3 4 6 7 8 8 6 4 3 5 3 3 2 4 3 5 3 3 5 1 3
31 30 30 30 29 27 20 27 28 22 11 4 2 2 2 2 3 4 6 5 9 7 5 5 3 1 5 5 6 5 4 4 3 4 3 2 4 3 4 2 5 2 4 5 6 3 3
30 31 30 29 27 24 20 27 27 12 17 4 3 2 2 3 1 4 3 3 5 4 4 3 3 2 4 4 3 4 5 4 3 2 6 5 6 4 2 3 5 5 3 1 3 5 2
29 29 29 28 26 22 22 25 21 22 18 6 3 1 3 4 3 4 2 3 3 5 5 3 2 3 3 2 3 3 2 4 5 7 4 2 2 2 2 1 8 6 4 2 4 6 4
28 28 27 27 24 23 27 27 10 25 19 8 1 3 3 4 3 4 5 3 3 3 5 4 4 2 3 3 3 3 3 5 4 5 5 5 5 3 3 2 8 3 2 6 5 2 5
28 26 25 22 21 26 29 16 21 24 19 9 3 2 4 6 3 1 1 2 3 2 5 3 3 2 3 5 1 3 2 1 4 3 1 3 7 6 8 6 2 2 3 2 2 5 4
Wind_Direction
349 346 348 349 350 354 351 343 334 246 249 260 264 271 281 286 298 298 302 306 295 306 293 292 293 317 20 251 254 264 312 310 50 164 224 198 191 224 201 226 208 221 206 199 174 351 6
342 343 343 345 345 345 349 347 341 273 246 250 255 260 273 289 294 295 297 306 301 302 291 298 303 347 125 273 247 317 314 297 321 277 266 167 213 223 221 229 199 197 223 185 205 262 47
343 340 342 342 341 341 343 345 346 342 249 253 253 257 261 275 285 294 299 299 302 301 290 291 296 291 230 248 296 323 15 2 316 336 287 207 279 303 301 209 201 206 184 282 217 224 34
344 344 344 339 340 341 341 343 345 350 283 259 251 252 261 274 284 294 300 296 293 285 274 277 291 286 250 258 246 324 350 287 284 74 253 261 190 259 248 250 136 152 93 135 271 160 58
345 341 344 343 341 340 339 339 338 334 326 335 236 244 261 269 283 292 294 290 282 271 271 265 288 178 271 135 273 309 5 282 301 234 238 258 230 210 193 178 110 172 119 127 195 101 99
347 344 347 339 341 342 341 341 335 331 338 338 238 236 252 262 283 290 297 292 273 261 284 202 200 276 254 302 325 319 280 271 299 307 254 230 220 355 25 62 151 155 105 275 106 108 160
347 345 343 341 341 338 339 341 341 335 328 336 232 222 231 248 279 288 324 310 51 39 242 202 174 240 299 15 354 226 296 303 248 259 277 278 28 92 108 146 20 251 167 93 95 76 106
345 342 342 342 345 342 342 340 340 335 327 332 224 206 218 256 275 279 119 249 181 161 297 225 236 263 238 158 10 59 353 273 297 286 22 187 124 155 117 156 260 257 122 116 69 95 68
344 341 339 345 348 343 340 339 336 337 332 331 226 198 189 248 276 272 194 242 127 105 290 295 186 205 210 159 129 288 136 311 252 135 247 55 32 143 85 184 258 163 149 137 126 127 187
341 340 341 342 342 339 338 333 338 336 338 342 305 191 185 188 284 215 195 228 127 98 63 262 259 254 143 201 298 164 215 263 135 182 183 54 10 314 153 184 196 64 134 114 106 93 27
337 336 340 340 338 339 336 333 332 331 334 330 320 189 179 167 275 235 171 159 120 63 30 250 190 125 137 134 275 225 181 221 150 151 153 115 299 118 116 156 202 135 104 102 106 86 271
333 333 332 333 335 335 332 338 332 334 328 330 324 178 174 192 236 246 133 152 67 47 265 183 150 235 328 181 247 280 194 230 288 44 50 168 166 27 57 279 44 149 105 51 62 112 105
328 333 333 334 335 332 332 334 330 327 327 323 329 172 169 149 228 155 135 57 56 141 309 239 192 175 206 318 311 296 335 41 174 104 19 49 49 87 77 127 142 122 73 96 85 50 128
322 327 331 331 331 330 331 329 331 324 326 318 313 181 189 211 184 138 111 63 124 211 206 229 135 113 139 5 282 301 352 21 25 74 80 67 52 12 337 73 133 85 167 128 93 86 319
319 321 324 324 325 326 328 326 328 333 326 310 268 133 175 216 182 127 117 95 201 201 186 155 91 112 274 309 187 343 93 107 265 63 124 113 27 318 125 54 116 123 341 122 109 69 73
319 317 317 317 318 320 323 320 327 337 324 164 130 173 169 162 165 125 95 198 221 212 176 118 159 159 176 211 127 306 18 269 99 166 170 174 84 13 303 105 292 183 160 83 7 123 229
314 316 316 315 315 315 314 317 322 331 339 311 356 159 152 153 150 203 183 206 234 232 190 139 193 157 161 170 179 208 354 325 78 21 74 115 89 292 32 23 27 10 38 59 93 85 146
312 316 317 314 313 312 309 314 317 322 333 302 323 249 159 160 184 202 178 176 215 173 189 164 159 124 151 155 157 213 148 209 22 52 52 11 105 70 61 314 323 126 77 100 110 209 101
314 316 317 314 310 309 307 312 313 320 315 318 244 245 153 352 203 193 147 145 223 161 177 152 205 182 151 157 132 180 116 340 189 63 120 178 25 56 354 353 359 47 27 89 96 78 194
313 313 315 314 311 310 306 309 313 321 314 291 159 188 151 224 284 168 141 196 169 218 155 144 193 150 124 130 99 174 124 31 89 98 69 89 98 147 176 199 142 192 172 136 110 101 184
311 314 313 312 311 311 308 310 323 315 309 290 179 219 192 175 200 180 164 172 177 164 188 172 88 197 129 111 90 119 129 104 70 8 60 87 125 120 143 119 134 179 206 188 174 171 150
314 312 312 311 310 309 309 313 319 312 311 206 172 188 151 284 170 155 218 207 177 154 133 182 144 167 124 145 174 179 122 136 187 355 83 27 166 127 72 16 48 197 186 190 231 192 258
312 312 312 311 310 311 308 310 323 314 280 133 122 109 108 173 162 173 198 198 183 135 37 148 144 112 104 177 166 144 106 112 142 145 121 91 122 78 320 333 345 328 238 190 183 187 157
311 312 311 311 313 311 315 328 314 311 293 103 61 100 140 181 191 182 173 205 175 142 122 44 114 110 179 125 95 62 64 76 59 38 127 126 93 83 178 4 27 240 235 187 199 149 214
311 312 310 311 313 315 324 321 307 292 234 84 120 87 94 125 149 160 164 194 98 75 78 91 34 289 134 62 65 58 11 26 14 31 38 91 112 92 121 194 291 263 202 181 182 195 227
313 312 314 314 314 314 324 308 317 152 133 96 93 131 113 148 333 336 138 196 117 99 51 66 24 37 66 80 88 133 182 162 187 16 42 76 78 96 176 128 227 245 262 230 85 281 205
315 313 310 313 314 314 320 319 321 151 117 102 78 72 98 108 351 359 92 138 96 92 93 110 104 54 40 92 118 161 201 166 152 160 164 94 79 163 184 243 291 248 221 105 93 250 157
311 312 312 316 317 326 322 318 257 150 116 87 66 10 102 97 20 357 357 47 51 87 131 180 96 28 47 79 127 194 134 210 113 165 183 150 172 204 146 213 263 177 84 166 204 104 139
312 314 318 320 334 329 314 307 168 159 129 100 96 328 50 74 130 307 122 83 27 334 124 34 137 133 161 93 130 118 119 108 153 200 355 179 183 182 179 211 260 314 300 14 126 138 157